Winchester, TN

5:22 AM CDT on July 24, 2017 (GMT -0500)
Winchester Municipal

Weather History for KBGF - January, 2014

Change the Weather History Date:

Thursday, January 9, 2014

  Actual Average (KTHA) Record (KTHA)
Temperature  
Mean Temperature 38 °F -  
Max Temperature 48 °F 45 °F 57 °F (2013)
Min Temperature 28 °F 26 °F 15 °F (2015)
Degree Days  
Heating Degree Days 27    
Moisture  
Dew Point 26 °F    
Average Humidity 59    
Maximum Humidity 81    
Minimum Humidity 36    
Precipitation  
Precipitation 0.00 in - - ()
Sea Level Pressure  
Sea Level Pressure 30.38 in    
Wind  
Wind Speed 6 mph (SE)    
Max Wind Speed 16 mph    
Max Gust Speed -    
Visibility 10 miles    
Events      
Averages and records for this station are not official NWS values.
T = Trace of Precipitation, MM = Missing Value Source: NWS Daily Summary

Daily Weather History Graph

Daily Weather History Graph

Search for Another Location

Airport or City:

Trip Planner

Search our weather history database for the weather conditions in past years. The results will help you decide how hot, cold, wet, or windy it might be!

Date:

Astronomy

Jan. 09, 2014 Rise Set
Actual Time 7:53 AM EST 5:49 PM EST
Civil Twilight 7:25 AM EST 6:17 PM EST
Nautical Twilight 6:53 AM EST 6:49 PM EST
Astronomical Twilight 6:23 AM EST 7:19 PM EST
Moon 1:11 PM EST (1/9) 2:05 AM EST (1/9)
Length of Visible Light 10h 52m
Length of Day
9h 56m
Waxing Gibbous, 66% of the Moon is Illuminated
Jan 9
Waxing Gibbous
Jan 15
Full
Jan 24
Last Quarter
Jan 30
New
Feb 6
First Quarter

Hourly Weather History & Observations

Time (EST) Temp. Windchill Dew Point Humidity Pressure Visibility Wind Dir Wind Speed Gust Speed Precip Events Conditions
12:35 AM 33.8 °F 28.6 °F 17.6 °F 52% 30.42 in 10.0 mi ESE 5.8 mph - N/A   Overcast
12:55 AM 33.8 °F 29.6 °F 17.6 °F 52% 30.41 in 10.0 mi ESE 4.6 mph - N/A   Overcast
1:15 AM 33.8 °F 27.0 °F 17.6 °F 52% 30.41 in 10.0 mi ESE 8.1 mph - N/A   Overcast
1:35 AM 33.8 °F - 15.8 °F 48% 30.41 in 10.0 mi Calm Calm - N/A   Scattered Clouds
1:55 AM 33.8 °F 27.7 °F 15.8 °F 48% 30.40 in 10.0 mi ESE 6.9 mph - N/A   Partly Cloudy
2:15 AM 33.8 °F 27.0 °F 15.8 °F 48% 30.40 in 10.0 mi ESE 8.1 mph - N/A   Clear
2:35 AM 32.0 °F 26.4 °F 15.8 °F 51% 30.41 in 10.0 mi ESE 5.8 mph - N/A   Clear
2:55 AM 32.0 °F - 15.8 °F 51% 30.42 in 10.0 mi Calm Calm - N/A   Clear
3:15 AM 30.2 °F - 15.8 °F 55% 30.43 in 10.0 mi Calm Calm - N/A   Partly Cloudy
3:35 AM 30.2 °F - 15.8 °F 55% 30.43 in 10.0 mi Calm Calm - N/A   Partly Cloudy
3:55 AM 28.4 °F 24.6 °F 19.4 °F 69% 30.42 in 10.0 mi East 3.5 mph - N/A   Scattered Clouds
4:15 AM 30.2 °F 26.7 °F 17.6 °F 60% 30.43 in 10.0 mi East 3.5 mph - N/A   Partly Cloudy
4:35 AM 30.2 °F 23.4 °F 17.6 °F 60% 30.42 in 10.0 mi ESE 6.9 mph - N/A   Clear
4:55 AM 30.2 °F - 15.8 °F 55% 30.43 in 10.0 mi Calm Calm - N/A   Clear
5:15 AM 28.4 °F - 15.8 °F 59% 30.43 in 10.0 mi Calm Calm - N/A   Mostly Cloudy
5:35 AM 30.2 °F - 17.6 °F 60% 30.44 in 10.0 mi Calm Calm - N/A   Overcast
5:55 AM 28.4 °F - 21.2 °F 74% 30.43 in 10.0 mi Calm Calm - N/A   Overcast
6:15 AM 30.2 °F - 19.4 °F 64% 30.43 in 10.0 mi Calm Calm - N/A   Overcast
6:35 AM 32.0 °F - 17.6 °F 55% 30.44 in 10.0 mi Calm Calm - N/A   Overcast
6:55 AM 33.8 °F - 15.8 °F 48% 30.43 in 10.0 mi Calm Calm - N/A   Overcast
7:15 AM 32.0 °F - 17.6 °F 55% 30.44 in 10.0 mi Calm Calm - N/A   Mostly Cloudy
7:35 AM 33.8 °F - 15.8 °F 48% 30.43 in 10.0 mi Calm Calm - N/A   Mostly Cloudy
7:55 AM 33.8 °F 27.7 °F 14.0 °F 44% 30.43 in 10.0 mi ESE 6.9 mph - N/A   Partly Cloudy
8:15 AM 33.8 °F 28.6 °F 14.0 °F 44% 30.44 in 10.0 mi SE 5.8 mph - N/A   Clear
8:35 AM 33.8 °F 28.6 °F 15.8 °F 48% 30.46 in 10.0 mi ESE 5.8 mph - N/A   Clear
8:55 AM 35.6 °F 29.2 °F 12.2 °F 38% 30.45 in 10.0 mi ESE 8.1 mph - N/A   Clear
9:15 AM 35.6 °F 28.0 °F 15.8 °F 44% 30.44 in 10.0 mi SE 10.4 mph - N/A   Clear
9:35 AM 37.4 °F 32.1 °F 14.0 °F 38% 30.44 in 10.0 mi ESE 6.9 mph - N/A   Clear
9:55 AM 39.2 °F 31.6 °F 14.0 °F 36% 30.44 in 10.0 mi SE 12.7 mph - N/A   Clear
10:15 AM 39.2 °F 31.2 °F 15.8 °F 39% 30.43 in 10.0 mi SE 13.8 mph - N/A   Clear
10:35 AM 39.2 °F 31.6 °F 17.6 °F 42% 30.43 in 10.0 mi SE 12.7 mph - N/A   Clear
10:55 AM 42.8 °F 35.8 °F 19.4 °F 39% 30.42 in 10.0 mi SE 13.8 mph - N/A   Clear
11:15 AM 42.8 °F 37.0 °F 21.2 °F 42% 30.42 in 10.0 mi SE 10.4 mph - N/A   Clear
11:35 AM 44.6 °F 40.7 °F 23.0 °F 43% 30.42 in 10.0 mi SE 6.9 mph - N/A   Clear
11:55 AM 46.4 °F 44.3 °F 26.6 °F 46% 30.40 in 10.0 mi Variable 4.6 mph - N/A   Clear
12:15 PM 46.4 °F 40.7 °F 26.6 °F 46% 30.38 in 10.0 mi SSE 12.7 mph - N/A   Clear
12:35 PM 46.4 °F 42.9 °F 28.4 °F 50% 30.38 in 10.0 mi South 6.9 mph - N/A   Clear
12:55 PM 46.4 °F 41.9 °F 28.4 °F 50% 30.37 in 10.0 mi South 9.2 mph - N/A   Scattered Clouds
1:15 PM 46.4 °F 42.4 °F 30.2 °F 53% 30.36 in 10.0 mi South 8.1 mph - N/A   Mostly Cloudy
1:35 PM 48.2 °F - 30.2 °F 50% 30.35 in 10.0 mi ESE 6.9 mph - N/A   Overcast
1:55 PM 48.2 °F - 32.0 °F 54% 30.33 in 10.0 mi SSE 8.1 mph - N/A   Overcast
2:15 PM 48.2 °F - 32.0 °F 54% 30.34 in 10.0 mi SE 8.1 mph - N/A   Overcast
2:35 PM 48.2 °F - 33.8 °F 58% 30.33 in 10.0 mi South 6.9 mph - N/A   Overcast
2:55 PM 48.2 °F - 33.8 °F 58% 30.33 in 10.0 mi SSE 4.6 mph - N/A   Overcast
3:35 PM 48.2 °F - 33.8 °F 58% 30.34 in 10.0 mi SSE 10.4 mph - N/A   Overcast
3:55 PM 46.4 °F 42.4 °F 35.6 °F 66% 30.34 in 10.0 mi SSE 8.1 mph - N/A   Overcast
4:15 PM 46.4 °F 42.9 °F 35.6 °F 66% 30.35 in 10.0 mi SE 6.9 mph - N/A   Overcast
4:35 PM 46.4 °F 44.3 °F 37.4 °F 71% 30.34 in 10.0 mi SE 4.6 mph - N/A   Overcast
4:55 PM 46.4 °F 42.9 °F 37.4 °F 71% 30.33 in 10.0 mi SE 6.9 mph - N/A   Overcast
5:15 PM 46.4 °F 44.3 °F 37.4 °F 71% 30.35 in 10.0 mi SSE 4.6 mph - N/A   Overcast
6:15 PM 44.6 °F - 37.4 °F 76% 30.34 in 10.0 mi Calm Calm - N/A   Overcast
6:35 PM 44.6 °F 41.4 °F 37.4 °F 76% 30.33 in 10.0 mi SE 5.8 mph - N/A   Overcast
6:55 PM 44.6 °F - 37.4 °F 76% 30.34 in 10.0 mi Calm Calm - N/A   Overcast
7:15 PM 44.6 °F 41.4 °F 37.4 °F 76% 30.34 in 10.0 mi SE 5.8 mph - N/A   Overcast
7:35 PM 42.8 °F 40.1 °F 37.4 °F 81% 30.34 in 10.0 mi ESE 4.6 mph - N/A   Overcast
7:55 PM 44.6 °F 42.2 °F 37.4 °F 76% 30.34 in 10.0 mi SE 4.6 mph - N/A   Overcast
8:15 PM 42.8 °F 40.1 °F 37.4 °F 81% 30.34 in 10.0 mi ESE 4.6 mph - N/A   Overcast
8:35 PM 44.6 °F 40.7 °F 37.4 °F 76% 30.34 in 10.0 mi ESE 6.9 mph - N/A   Overcast
8:55 PM 44.6 °F 39.7 °F 37.4 °F 76% 30.33 in 10.0 mi SE 9.2 mph - N/A   Overcast
9:15 PM 44.6 °F 39.7 °F 37.4 °F 76% 30.34 in 10.0 mi SE 9.2 mph - N/A   Overcast
9:35 PM 42.8 °F 36.6 °F 35.6 °F 76% 30.33 in 10.0 mi ESE 11.5 mph - N/A   Overcast
9:55 PM 44.6 °F 37.4 °F 37.4 °F 76% 30.32 in 10.0 mi SE 16.1 mph - N/A   Overcast
10:15 PM 44.6 °F 38.4 °F 37.4 °F 76% 30.31 in 10.0 mi ESE 12.7 mph - N/A   Overcast
10:35 PM 44.6 °F 37.4 °F 37.4 °F 76% 30.31 in 10.0 mi ESE 16.1 mph - N/A   Overcast
10:55 PM 44.6 °F 38.8 °F 39.2 °F 81% 30.31 in 10.0 mi SE 11.5 mph - N/A   Overcast
11:15 PM 44.6 °F 38.4 °F 39.2 °F 81% 30.31 in 10.0 mi SSE 12.7 mph - N/A   Overcast
11:35 PM 44.6 °F 37.4 °F 39.2 °F 81% 30.29 in 10.0 mi SE 16.1 mph - N/A   Mostly Cloudy
11:55 PM 44.6 °F 38.8 °F 39.2 °F 81% 30.29 in 10.0 mi SE 11.5 mph - N/A   Overcast